Simultaneous Nadir Overpasses (SNOs) Predictions

Prediction of SNOs between GOES-15 and METOP-C Satellite Orbit:

Table of predicted SNOs for the next 14.0 days since TLE Epoch: 9/28/2024
Index Date Time (GOES-15) GOES-15 Lat,Lon METOP-C Lat,Lon Distance(km) Time Diff (sec)
1 09/28/2024 05:26:28 -0.29, 61.22 -0.31, 61.42 22.75 80
2 09/30/2024 17:24:50 0.29, 61.35 0.41, 61.82 53.94 80
3 10/02/2024 05:41:02 -0.31, 61.21 0.56, 57.25 450.50 80
4 10/03/2024 05:23:03 -0.30, 61.21 -0.55, 62.25 119.41 80
5 10/04/2024 17:42:03 0.31, 61.34 -0.50, 57.66 418.95 80
6 10/05/2024 17:21:24 0.30, 61.34 0.62, 62.66 150.24 80
7 10/07/2024 05:37:35 -0.31, 61.22 0.38, 58.10 355.43 80
8 10/08/2024 05:19:35 -0.30, 61.22 -0.69, 63.10 213.76 80
9 10/09/2024 17:38:35 0.30, 61.36 -0.34, 58.51 325.33 80
10 10/10/2024 17:15:15 0.29, 61.38 0.79, 63.50 243.00 80
